Back to catalog

ATLAS 5 CENTAUR DEB

AliveHEO
NORAD 44652·DEBRIS·🇺🇸 United States

Launched Oct 17, 2018 from Cape Canaveral Space Force Station

Loading…

Next Passes (next 24 hours)

TLE

StaleSource: Space-Track

Epoch: Aug 17, 2026, 10:48 UTC

1 44652U 18079N   26229.45033039 -.00000143  00000-0  00000-0 0  9993
2 44652  13.2193  29.1980 4426134 334.6294   8.8621  1.86501360 53313

Track ATLAS 5 CENTAUR DEB in real time with AllMySat

Download on the App Store